Year,Month,Day,Hour,Minute,Value (Times are PST for temperature in C)
2014,06,27,00,00,15.30
2014,06,27,00,01,15.40
2014,06,27,00,02,15.50
2014,06,27,00,03,15.50
2014,06,27,00,04,15.60
2014,06,27,00,05,15.70
2014,06,27,00,06,15.80
2014,06,27,00,07,15.80
2014,06,27,00,08,15.80
2014,06,27,00,09,15.80
2014,06,27,00,10,15.90
2014,06,27,00,11,15.90
2014,06,27,00,12,16.00
2014,06,27,00,13,16.00
2014,06,27,00,14,16.00
2014,06,27,00,15,15.90
2014,06,27,00,16,15.90
2014,06,27,00,17,15.90
2014,06,27,00,18,15.80
2014,06,27,00,19,15.80
2014,06,27,00,20,15.70
2014,06,27,00,21,15.60
2014,06,27,00,22,15.40
2014,06,27,00,23,15.30
2014,06,27,00,24,15.20
2014,06,27,00,25,15.10
2014,06,27,00,26,15.10
2014,06,27,00,27,15.10
2014,06,27,00,28,15.10
2014,06,27,00,29,15.20
2014,06,27,00,30,15.20
2014,06,27,00,31,15.30
2014,06,27,00,32,15.30
2014,06,27,00,33,15.30
2014,06,27,00,34,15.30
2014,06,27,00,35,15.30
2014,06,27,00,36,15.20
2014,06,27,00,37,15.20
2014,06,27,00,38,15.20
2014,06,27,00,39,15.10
2014,06,27,00,40,15.10
2014,06,27,00,41,15.10
2014,06,27,00,42,15.00
2014,06,27,00,43,15.00
2014,06,27,00,44,14.90
2014,06,27,00,45,14.90
2014,06,27,00,46,14.80
2014,06,27,00,47,14.80
2014,06,27,00,48,14.70
2014,06,27,00,49,14.70
2014,06,27,00,50,14.70
2014,06,27,00,51,14.80
2014,06,27,00,52,14.80
2014,06,27,00,53,14.80
2014,06,27,00,54,14.90
2014,06,27,00,55,14.90
2014,06,27,00,56,14.90
2014,06,27,00,57,14.90
2014,06,27,00,58,14.90
2014,06,27,00,59,15.00
2014,06,27,01,00,15.00
2014,06,27,01,01,15.10
2014,06,27,01,02,15.10
2014,06,27,01,03,15.20
2014,06,27,01,04,15.20
2014,06,27,01,05,15.20
2014,06,27,01,06,15.20
2014,06,27,01,07,15.10
2014,06,27,01,08,15.10
2014,06,27,01,09,15.10
2014,06,27,01,10,15.00
2014,06,27,01,11,15.00
2014,06,27,01,12,14.90
2014,06,27,01,13,14.90
2014,06,27,01,14,14.80
2014,06,27,01,15,14.80
2014,06,27,01,16,14.70
2014,06,27,01,17,14.70
2014,06,27,01,18,14.60
2014,06,27,01,19,14.60
2014,06,27,01,20,14.60
2014,06,27,01,21,14.60
2014,06,27,01,22,14.60
2014,06,27,01,23,14.70
2014,06,27,01,24,14.70
2014,06,27,01,25,14.80
2014,06,27,01,26,14.80
2014,06,27,01,27,14.90
2014,06,27,01,28,14.90
2014,06,27,01,29,15.00
2014,06,27,01,30,15.00
2014,06,27,01,31,15.10
2014,06,27,01,32,15.10
2014,06,27,01,33,15.10
2014,06,27,01,34,15.20
2014,06,27,01,35,15.20
2014,06,27,01,36,15.20
2014,06,27,01,37,15.20
2014,06,27,01,38,15.20
2014,06,27,01,39,15.20
2014,06,27,01,40,15.20
2014,06,27,01,41,15.10
2014,06,27,01,42,15.10
2014,06,27,01,43,15.10
2014,06,27,01,44,15.00
2014,06,27,01,45,15.00
2014,06,27,01,46,14.90
2014,06,27,01,47,14.90
2014,06,27,01,48,14.90
2014,06,27,01,49,14.80
2014,06,27,01,50,14.80
2014,06,27,01,51,14.80
2014,06,27,01,52,14.80
2014,06,27,01,53,14.80
2014,06,27,01,54,14.80
2014,06,27,01,55,14.80
2014,06,27,01,56,14.80
2014,06,27,01,57,14.80
2014,06,27,01,58,14.80
2014,06,27,01,59,14.70
2014,06,27,02,00,14.70
2014,06,27,02,01,14.70
2014,06,27,02,02,14.60
2014,06,27,02,03,14.60
2014,06,27,02,04,14.50
2014,06,27,02,05,14.50
2014,06,27,02,06,14.40
2014,06,27,02,07,14.30
2014,06,27,02,08,14.20
2014,06,27,02,09,14.20
2014,06,27,02,10,14.10
2014,06,27,02,11,14.00
2014,06,27,02,12,14.00
2014,06,27,02,13,13.90
2014,06,27,02,14,13.90
2014,06,27,02,15,13.90
2014,06,27,02,16,13.90
2014,06,27,02,17,13.90
2014,06,27,02,18,14.00
2014,06,27,02,19,14.00
2014,06,27,02,20,14.00
2014,06,27,02,21,14.10
2014,06,27,02,22,14.10
2014,06,27,02,23,14.20
2014,06,27,02,24,14.20
2014,06,27,02,25,14.20
2014,06,27,02,26,14.20
2014,06,27,02,27,14.30
2014,06,27,02,28,14.30
2014,06,27,02,29,14.30
2014,06,27,02,30,14.40
2014,06,27,02,31,14.40
2014,06,27,02,32,14.40
2014,06,27,02,33,14.40
2014,06,27,02,34,14.40
2014,06,27,02,35,14.30
2014,06,27,02,36,14.30
2014,06,27,02,37,14.30
2014,06,27,02,38,14.30
2014,06,27,02,39,14.20
2014,06,27,02,40,14.20
2014,06,27,02,41,14.20
2014,06,27,02,42,14.10
2014,06,27,02,43,14.10
2014,06,27,02,44,14.10
2014,06,27,02,45,14.10
2014,06,27,02,46,14.10
2014,06,27,02,47,14.10
2014,06,27,02,48,14.00
2014,06,27,02,49,14.00
2014,06,27,02,50,13.90
2014,06,27,02,51,13.90
2014,06,27,02,52,13.90
2014,06,27,02,53,13.90
2014,06,27,02,54,13.90
2014,06,27,02,55,13.90
2014,06,27,02,56,13.90
2014,06,27,02,57,13.90
2014,06,27,02,58,13.90
2014,06,27,02,59,13.90
2014,06,27,03,00,13.90
2014,06,27,03,01,13.90
2014,06,27,03,02,13.90
2014,06,27,03,03,13.80
2014,06,27,03,04,13.80
2014,06,27,03,05,13.80
2014,06,27,03,06,13.80
2014,06,27,03,07,13.80
2014,06,27,03,08,13.80
2014,06,27,03,09,13.80
2014,06,27,03,10,13.80
2014,06,27,03,11,13.80
2014,06,27,03,12,13.80
2014,06,27,03,13,13.80
2014,06,27,03,14,13.80
2014,06,27,03,15,13.80
2014,06,27,03,16,13.80
2014,06,27,03,17,13.80
2014,06,27,03,18,13.80
2014,06,27,03,19,13.80
2014,06,27,03,20,13.80
2014,06,27,03,21,13.80
2014,06,27,03,22,13.80
2014,06,27,03,23,13.80
2014,06,27,03,24,13.80
2014,06,27,03,25,13.80
2014,06,27,03,26,13.80
2014,06,27,03,27,13.70
2014,06,27,03,28,13.70
2014,06,27,03,29,13.70
2014,06,27,03,30,13.70
2014,06,27,03,31,13.60
2014,06,27,03,32,13.60
2014,06,27,03,33,13.60
2014,06,27,03,34,13.60
2014,06,27,03,35,13.60
2014,06,27,03,36,13.60
2014,06,27,03,37,13.60
2014,06,27,03,38,13.70
2014,06,27,03,39,13.70
2014,06,27,03,40,13.70
2014,06,27,03,41,13.70
2014,06,27,03,42,13.80
2014,06,27,03,43,13.80
2014,06,27,03,44,13.80
2014,06,27,03,45,13.80
2014,06,27,03,46,13.80
2014,06,27,03,47,13.80
2014,06,27,03,48,13.80
2014,06,27,03,49,13.80
2014,06,27,03,50,13.70
2014,06,27,03,51,13.70
2014,06,27,03,52,13.70
2014,06,27,03,53,13.60
2014,06,27,03,54,13.60
2014,06,27,03,55,13.50
2014,06,27,03,56,13.50
2014,06,27,03,57,13.40
2014,06,27,03,58,13.40
2014,06,27,03,59,13.30
2014,06,27,04,00,13.30
2014,06,27,04,01,13.30
2014,06,27,04,02,13.20
2014,06,27,04,03,13.20
2014,06,27,04,04,13.20
2014,06,27,04,05,13.10
2014,06,27,04,06,13.10
2014,06,27,04,07,13.10
2014,06,27,04,08,13.10
2014,06,27,04,09,13.20
2014,06,27,04,10,13.20
2014,06,27,04,11,13.30
2014,06,27,04,12,13.30
2014,06,27,04,13,13.40
2014,06,27,04,14,13.40
2014,06,27,04,15,13.40
2014,06,27,04,16,13.40
2014,06,27,04,17,13.40
2014,06,27,04,18,13.40
2014,06,27,04,19,13.40
2014,06,27,04,20,13.30
2014,06,27,04,21,13.30
2014,06,27,04,22,13.30
2014,06,27,04,23,13.20
2014,06,27,04,24,13.20
2014,06,27,04,25,13.20
2014,06,27,04,26,13.20
2014,06,27,04,27,13.20
2014,06,27,04,28,13.20
2014,06,27,04,29,13.20
2014,06,27,04,30,13.10
2014,06,27,04,31,13.10
2014,06,27,04,32,13.10
2014,06,27,04,33,13.10
2014,06,27,04,34,13.10
2014,06,27,04,35,13.10
2014,06,27,04,36,13.10
2014,06,27,04,37,13.10
2014,06,27,04,38,13.10
2014,06,27,04,39,13.10
2014,06,27,04,40,13.10
2014,06,27,04,41,13.10
2014,06,27,04,42,13.10
2014,06,27,04,43,13.10
2014,06,27,04,44,13.10
2014,06,27,04,45,13.10
2014,06,27,04,46,13.10
2014,06,27,04,47,13.10
2014,06,27,04,48,13.10
2014,06,27,04,49,13.20
2014,06,27,04,50,13.20
2014,06,27,04,51,13.20
2014,06,27,04,52,13.20
2014,06,27,04,53,13.30
2014,06,27,04,54,13.30
2014,06,27,04,55,13.30
2014,06,27,04,56,13.30
2014,06,27,04,57,13.30
2014,06,27,04,58,13.40
2014,06,27,04,59,13.40
2014,06,27,05,00,13.40
2014,06,27,05,01,13.40
2014,06,27,05,02,13.40
2014,06,27,05,03,13.40
2014,06,27,05,04,13.40
2014,06,27,05,05,13.40
2014,06,27,05,06,13.40
2014,06,27,05,07,13.40
2014,06,27,05,08,13.40
2014,06,27,05,09,13.40
2014,06,27,05,10,13.40
2014,06,27,05,11,13.40
2014,06,27,05,12,13.40
2014,06,27,05,13,13.40
2014,06,27,05,14,13.40
2014,06,27,05,15,13.40
2014,06,27,05,16,13.40
2014,06,27,05,17,13.40
2014,06,27,05,18,13.30
2014,06,27,05,19,13.30
2014,06,27,05,20,13.30
2014,06,27,05,21,13.30
2014,06,27,05,22,13.30
2014,06,27,05,23,13.20
2014,06,27,05,24,13.20
2014,06,27,05,25,13.20
2014,06,27,05,26,13.20
2014,06,27,05,27,13.20
2014,06,27,05,28,13.10
2014,06,27,05,29,13.10
2014,06,27,05,30,13.10
2014,06,27,05,31,13.00
2014,06,27,05,32,13.00
2014,06,27,05,33,12.90
2014,06,27,05,34,12.90
2014,06,27,05,35,12.90
2014,06,27,05,36,12.90
2014,06,27,05,37,12.80
2014,06,27,05,38,12.80
2014,06,27,05,39,12.80
2014,06,27,05,40,12.80
2014,06,27,05,41,12.80
2014,06,27,05,42,12.80
2014,06,27,05,43,12.70
2014,06,27,05,44,12.70
2014,06,27,05,45,12.70
2014,06,27,05,46,12.70
2014,06,27,05,47,12.70
2014,06,27,05,48,12.70
2014,06,27,05,49,12.70
2014,06,27,05,50,12.70
2014,06,27,05,51,12.70
2014,06,27,05,52,12.70
2014,06,27,05,53,12.70
2014,06,27,05,54,12.60
2014,06,27,05,55,12.60
2014,06,27,05,56,12.60
2014,06,27,05,57,12.60
2014,06,27,05,58,12.60
2014,06,27,05,59,12.60
2014,06,27,06,00,12.60
2014,06,27,06,01,12.60
2014,06,27,06,02,12.60
2014,06,27,06,03,12.60
2014,06,27,06,04,12.60
2014,06,27,06,05,12.60
2014,06,27,06,06,12.60
2014,06,27,06,07,12.60
2014,06,27,06,08,12.60
2014,06,27,06,09,12.60
2014,06,27,06,10,12.60
2014,06,27,06,11,12.60
2014,06,27,06,12,12.60
2014,06,27,06,13,12.60
2014,06,27,06,14,12.60
2014,06,27,06,15,12.60
2014,06,27,06,16,12.60
2014,06,27,06,17,12.60
2014,06,27,06,18,12.60
2014,06,27,06,19,12.60
2014,06,27,06,20,12.60
2014,06,27,06,21,12.60
2014,06,27,06,22,12.60
2014,06,27,06,23,12.60
2014,06,27,06,24,12.60
2014,06,27,06,25,12.60
2014,06,27,06,26,12.60
2014,06,27,06,27,12.60
2014,06,27,06,28,12.60
2014,06,27,06,29,12.50
2014,06,27,06,30,12.50
2014,06,27,06,31,12.50
2014,06,27,06,32,12.50
2014,06,27,06,33,12.50
2014,06,27,06,34,12.50
2014,06,27,06,35,12.50
2014,06,27,06,36,12.50
2014,06,27,06,37,12.50
2014,06,27,06,38,12.50
2014,06,27,06,39,12.50
2014,06,27,06,40,12.50
2014,06,27,06,41,12.50
2014,06,27,06,42,12.50
2014,06,27,06,43,12.50
2014,06,27,06,44,12.50
2014,06,27,06,45,12.50
2014,06,27,06,46,12.50
2014,06,27,06,47,12.50
2014,06,27,06,48,12.40
2014,06,27,06,49,12.40
2014,06,27,06,50,12.40
2014,06,27,06,51,12.40
2014,06,27,06,52,12.40
2014,06,27,06,53,12.40
2014,06,27,06,54,12.30
2014,06,27,06,55,12.30
2014,06,27,06,56,12.30
2014,06,27,06,57,12.30
2014,06,27,06,58,12.30
2014,06,27,06,59,12.30
2014,06,27,07,00,12.30
2014,06,27,07,01,12.30
2014,06,27,07,02,12.20
2014,06,27,07,03,12.20
2014,06,27,07,04,12.20
2014,06,27,07,05,12.20
2014,06,27,07,06,12.20
2014,06,27,07,07,12.20
2014,06,27,07,08,12.20
2014,06,27,07,09,12.20
2014,06,27,07,10,12.20
2014,06,27,07,11,12.20
2014,06,27,07,12,12.20
2014,06,27,07,13,12.20
2014,06,27,07,14,12.20
2014,06,27,07,15,12.10
2014,06,27,07,16,12.10
2014,06,27,07,17,12.10
2014,06,27,07,18,12.10
2014,06,27,07,19,12.10
2014,06,27,07,20,12.10
2014,06,27,07,21,12.10
2014,06,27,07,22,12.10
2014,06,27,07,23,12.10
2014,06,27,07,24,12.10
2014,06,27,07,25,12.10
2014,06,27,07,26,12.10
2014,06,27,07,27,12.10
2014,06,27,07,28,12.10
2014,06,27,07,29,12.10
2014,06,27,07,30,12.10
2014,06,27,07,31,12.10
2014,06,27,07,32,12.10
2014,06,27,07,33,12.10
2014,06,27,07,34,12.10
2014,06,27,07,35,12.10
2014,06,27,07,36,12.10
2014,06,27,07,37,12.10
2014,06,27,07,38,12.10
2014,06,27,07,39,12.00
2014,06,27,07,40,12.00
2014,06,27,07,41,12.00
2014,06,27,07,42,12.00
2014,06,27,07,43,12.10
2014,06,27,07,44,12.00
2014,06,27,07,45,12.00
2014,06,27,07,46,12.00
2014,06,27,07,47,12.00
2014,06,27,07,48,12.10
2014,06,27,07,49,12.10
2014,06,27,07,50,12.10
2014,06,27,07,51,12.10
2014,06,27,07,52,12.10
2014,06,27,07,53,12.10
2014,06,27,07,54,12.10
2014,06,27,07,55,12.10
2014,06,27,07,56,12.10
2014,06,27,07,57,12.10
2014,06,27,07,58,12.10
2014,06,27,07,59,12.10
2014,06,27,08,00,12.20
2014,06,27,08,01,12.20
2014,06,27,08,02,12.20
2014,06,27,08,03,12.20
2014,06,27,08,04,12.30
2014,06,27,08,05,12.30
2014,06,27,08,06,12.30
2014,06,27,08,07,12.30
2014,06,27,08,08,12.40
2014,06,27,08,09,12.40
2014,06,27,08,10,12.40
2014,06,27,08,11,12.50
2014,06,27,08,12,12.50
2014,06,27,08,13,12.60
2014,06,27,08,14,12.60
2014,06,27,08,15,12.60
2014,06,27,08,16,12.60
2014,06,27,08,17,12.70
2014,06,27,08,18,12.70
2014,06,27,08,19,12.70
2014,06,27,08,20,12.70
2014,06,27,08,21,12.70
2014,06,27,08,22,12.70
2014,06,27,08,23,12.70
2014,06,27,08,24,12.70
2014,06,27,08,25,12.70
2014,06,27,08,26,12.80
2014,06,27,08,27,12.80
2014,06,27,08,28,12.80
2014,06,27,08,29,12.80
2014,06,27,08,30,12.80
2014,06,27,08,31,12.80
2014,06,27,08,32,12.80
2014,06,27,08,33,12.80
2014,06,27,08,34,12.90
2014,06,27,08,35,12.90
2014,06,27,08,36,12.90
2014,06,27,08,37,12.90
2014,06,27,08,38,12.90
2014,06,27,08,39,12.90
2014,06,27,08,40,12.90
2014,06,27,08,41,13.00
2014,06,27,08,42,13.00
2014,06,27,08,43,13.00
2014,06,27,08,44,13.00
2014,06,27,08,45,13.10
2014,06,27,08,46,13.10
2014,06,27,08,47,13.10
2014,06,27,08,48,13.10
2014,06,27,08,49,13.10
2014,06,27,08,50,13.10
2014,06,27,08,51,13.10
2014,06,27,08,52,13.10
2014,06,27,08,53,13.10
2014,06,27,08,54,13.10
2014,06,27,08,55,13.10
2014,06,27,08,56,13.10
2014,06,27,08,57,13.10
2014,06,27,08,58,13.10
2014,06,27,08,59,13.10
2014,06,27,09,00,13.10
2014,06,27,09,01,13.10
2014,06,27,09,02,13.10
2014,06,27,09,03,13.10
2014,06,27,09,04,13.20
2014,06,27,09,05,13.20
2014,06,27,09,06,13.20
2014,06,27,09,07,13.20
2014,06,27,09,08,13.20
2014,06,27,09,09,13.20
2014,06,27,09,10,13.20
2014,06,27,09,11,13.20
2014,06,27,09,12,13.20
2014,06,27,09,13,13.20
2014,06,27,09,14,13.20
2014,06,27,09,15,13.20
2014,06,27,09,16,13.20
2014,06,27,09,17,13.20
2014,06,27,09,18,13.20
2014,06,27,09,19,13.20
2014,06,27,09,20,13.20
2014,06,27,09,21,13.20
2014,06,27,09,22,13.20
2014,06,27,09,23,13.20
2014,06,27,09,24,13.20
2014,06,27,09,25,13.20
2014,06,27,09,26,13.20
2014,06,27,09,27,13.20
2014,06,27,09,28,13.20
2014,06,27,09,29,13.20
2014,06,27,09,30,13.30
2014,06,27,09,31,13.30
2014,06,27,09,32,13.30
2014,06,27,09,33,13.40
2014,06,27,09,34,13.40
2014,06,27,09,35,13.40
2014,06,27,09,36,13.50
2014,06,27,09,37,13.50
2014,06,27,09,38,13.60
2014,06,27,09,39,13.60
2014,06,27,09,40,13.60
2014,06,27,09,41,13.70
2014,06,27,09,42,13.70
2014,06,27,09,43,13.70
2014,06,27,09,44,13.70
2014,06,27,09,45,13.70
2014,06,27,09,46,13.70
2014,06,27,09,47,13.70
2014,06,27,09,48,13.70
2014,06,27,09,49,13.70
2014,06,27,09,50,13.60
2014,06,27,09,51,13.60
2014,06,27,09,52,13.60
2014,06,27,09,53,13.60
2014,06,27,09,54,13.50
2014,06,27,09,55,13.50
2014,06,27,09,56,13.40
2014,06,27,09,57,13.40
2014,06,27,09,58,13.40
2014,06,27,09,59,13.30
2014,06,27,10,00,13.30
2014,06,27,10,01,13.30
2014,06,27,10,02,13.30
2014,06,27,10,03,13.20
2014,06,27,10,04,13.20
2014,06,27,10,05,13.20
2014,06,27,10,06,13.20
2014,06,27,10,07,13.20
2014,06,27,10,08,13.20
2014,06,27,10,09,13.20
2014,06,27,10,10,13.20
2014,06,27,10,11,13.20
2014,06,27,10,12,13.20
2014,06,27,10,13,13.20
2014,06,27,10,14,13.10
2014,06,27,10,15,13.10
2014,06,27,10,16,13.10
2014,06,27,10,17,13.10
2014,06,27,10,18,13.10
2014,06,27,10,19,13.10
2014,06,27,10,20,13.10
2014,06,27,10,21,13.10
2014,06,27,10,22,13.20
2014,06,27,10,23,13.20
2014,06,27,10,24,13.20
2014,06,27,10,25,13.20
2014,06,27,10,26,13.20
2014,06,27,10,27,13.30
2014,06,27,10,28,13.30
2014,06,27,10,29,13.30
2014,06,27,10,30,13.40
2014,06,27,10,31,13.40
2014,06,27,10,32,13.50
2014,06,27,10,33,13.50
2014,06,27,10,34,13.50
2014,06,27,10,35,13.60
2014,06,27,10,36,13.60
2014,06,27,10,37,13.60
2014,06,27,10,38,13.60
2014,06,27,10,39,13.50
2014,06,27,10,40,13.50
2014,06,27,10,41,13.50
2014,06,27,10,42,13.40
2014,06,27,10,43,13.40
2014,06,27,10,44,13.40
2014,06,27,10,45,13.40
2014,06,27,10,46,13.40
2014,06,27,10,47,13.40
2014,06,27,10,48,13.30
2014,06,27,10,49,13.30
2014,06,27,10,50,13.30
2014,06,27,10,51,13.30
2014,06,27,10,52,13.40
2014,06,27,10,53,13.40
2014,06,27,10,54,13.40
2014,06,27,10,55,13.30
2014,06,27,10,56,13.30
2014,06,27,10,57,13.30
2014,06,27,10,58,13.30
2014,06,27,10,59,13.30
2014,06,27,11,00,13.30
2014,06,27,11,01,13.30
2014,06,27,11,02,13.30
2014,06,27,11,03,13.30
2014,06,27,11,04,13.30
2014,06,27,11,05,13.30
2014,06,27,11,06,13.30
2014,06,27,11,07,13.30
2014,06,27,11,08,13.30
2014,06,27,11,09,13.30
2014,06,27,11,10,13.30
2014,06,27,11,11,13.30
2014,06,27,11,12,13.30
2014,06,27,11,13,13.30
2014,06,27,11,14,13.30
2014,06,27,11,15,13.30
2014,06,27,11,16,13.30
2014,06,27,11,17,13.30
2014,06,27,11,18,13.30
2014,06,27,11,19,13.30
2014,06,27,11,20,13.30
2014,06,27,11,21,13.30
2014,06,27,11,22,13.30
2014,06,27,11,23,13.30
2014,06,27,11,24,13.30
2014,06,27,11,25,13.30
2014,06,27,11,26,13.30
2014,06,27,11,27,13.30
2014,06,27,11,28,13.30
2014,06,27,11,29,13.30
2014,06,27,11,30,13.20
2014,06,27,11,31,13.20
2014,06,27,11,32,13.20
2014,06,27,11,33,13.20
2014,06,27,11,34,13.10
2014,06,27,11,35,13.10
2014,06,27,11,36,13.10
2014,06,27,11,37,13.00
2014,06,27,11,38,13.00
2014,06,27,11,39,13.00
2014,06,27,11,40,13.00
2014,06,27,11,41,13.00
2014,06,27,11,42,13.10
2014,06,27,11,43,13.10
2014,06,27,11,44,13.10
2014,06,27,11,45,13.20
2014,06,27,11,46,13.20
2014,06,27,11,47,13.20
2014,06,27,11,48,13.20
2014,06,27,11,49,13.30
2014,06,27,11,50,13.30
2014,06,27,11,51,13.30
2014,06,27,11,52,13.30
2014,06,27,11,53,13.30
2014,06,27,11,54,13.30
2014,06,27,11,55,13.30
2014,06,27,11,56,13.20
2014,06,27,11,57,13.20
2014,06,27,11,58,13.20
2014,06,27,11,59,13.20
2014,06,27,12,00,13.20
2014,06,27,12,01,13.20
2014,06,27,12,02,13.20
2014,06,27,12,03,13.20
2014,06,27,12,04,13.20
2014,06,27,12,05,13.20
2014,06,27,12,06,13.20
2014,06,27,12,07,13.20
2014,06,27,12,08,13.20
2014,06,27,12,09,13.20
2014,06,27,12,10,13.20
2014,06,27,12,11,13.20
2014,06,27,12,12,13.20
2014,06,27,12,13,13.20
2014,06,27,12,14,13.20
2014,06,27,12,15,13.20
2014,06,27,12,16,13.20
2014,06,27,12,17,13.20
2014,06,27,12,18,13.20
2014,06,27,12,19,13.20
2014,06,27,12,20,13.20
2014,06,27,12,21,13.20
2014,06,27,12,22,13.20
2014,06,27,12,23,13.30
2014,06,27,12,24,13.20
2014,06,27,12,25,13.20
2014,06,27,12,26,13.20
2014,06,27,12,27,13.20
2014,06,27,12,28,13.20
2014,06,27,12,29,13.20
2014,06,27,12,30,13.30
2014,06,27,12,31,13.30
2014,06,27,12,32,13.30
2014,06,27,12,33,13.30
2014,06,27,12,34,13.30
2014,06,27,12,35,13.30
2014,06,27,12,36,13.30
2014,06,27,12,37,13.30
2014,06,27,12,38,13.30
2014,06,27,12,39,13.30
2014,06,27,12,40,13.30
2014,06,27,12,41,13.30
2014,06,27,12,42,13.30
2014,06,27,12,43,13.30
2014,06,27,12,44,13.30
2014,06,27,12,45,13.30
2014,06,27,12,46,13.30
2014,06,27,12,47,13.30
2014,06,27,12,48,13.30
2014,06,27,12,49,13.30
2014,06,27,12,50,13.40
2014,06,27,12,51,13.40
2014,06,27,12,52,13.40
2014,06,27,12,53,13.40
2014,06,27,12,54,13.40
2014,06,27,12,55,13.40
2014,06,27,12,56,13.50
2014,06,27,12,57,13.50
2014,06,27,12,58,13.50
2014,06,27,12,59,13.50
2014,06,27,13,00,13.50
2014,06,27,13,01,13.50
2014,06,27,13,02,13.50
2014,06,27,13,03,13.50
2014,06,27,13,04,13.50
2014,06,27,13,05,13.60
2014,06,27,13,06,13.60
2014,06,27,13,07,13.60
2014,06,27,13,08,13.60
2014,06,27,13,09,13.60
2014,06,27,13,10,13.60
2014,06,27,13,11,13.70
2014,06,27,13,12,13.70
2014,06,27,13,13,13.70
2014,06,27,13,14,13.70
2014,06,27,13,15,13.70
2014,06,27,13,16,13.80
2014,06,27,13,17,13.80
2014,06,27,13,18,13.80
2014,06,27,13,19,13.80
2014,06,27,13,20,13.80
2014,06,27,13,21,13.80
2014,06,27,13,22,13.80
2014,06,27,13,23,13.80
2014,06,27,13,24,13.80
2014,06,27,13,25,13.80
2014,06,27,13,26,13.80
2014,06,27,13,27,13.80
2014,06,27,13,28,13.80
2014,06,27,13,29,13.80
2014,06,27,13,30,13.80
2014,06,27,13,31,13.80
2014,06,27,13,32,13.80
2014,06,27,13,33,13.80
2014,06,27,13,34,13.80
2014,06,27,13,35,13.80
2014,06,27,13,36,13.80
2014,06,27,13,37,13.80
2014,06,27,13,38,13.70
2014,06,27,13,39,13.70
2014,06,27,13,40,13.70
2014,06,27,13,41,13.70
2014,06,27,13,42,13.70
2014,06,27,13,43,13.70
2014,06,27,13,44,13.70
2014,06,27,13,45,13.70
2014,06,27,13,46,13.70
2014,06,27,13,47,13.70
2014,06,27,13,48,13.70
2014,06,27,13,49,13.70
2014,06,27,13,50,13.70
2014,06,27,13,51,13.70
2014,06,27,13,52,13.70
2014,06,27,13,53,13.70
2014,06,27,13,54,13.80
2014,06,27,13,55,13.80
2014,06,27,13,56,13.80
2014,06,27,13,57,13.80
2014,06,27,13,58,13.80
2014,06,27,13,59,13.80
2014,06,27,14,00,13.80
2014,06,27,14,01,13.80
2014,06,27,14,02,13.80
2014,06,27,14,03,13.80
2014,06,27,14,04,13.80
2014,06,27,14,05,13.80
2014,06,27,14,06,13.80
2014,06,27,14,07,13.80
2014,06,27,14,08,13.80
2014,06,27,14,09,13.80
2014,06,27,14,10,13.80
2014,06,27,14,11,13.80
2014,06,27,14,12,13.90
2014,06,27,14,13,13.90
2014,06,27,14,14,13.90
2014,06,27,14,15,13.90
2014,06,27,14,16,13.90
2014,06,27,14,17,13.90
2014,06,27,14,18,13.90
2014,06,27,14,19,13.90
2014,06,27,14,20,13.90
2014,06,27,14,21,14.00
2014,06,27,14,22,14.00
2014,06,27,14,23,14.00
2014,06,27,14,24,14.10
2014,06,27,14,25,14.10
2014,06,27,14,26,14.10
2014,06,27,14,27,14.10
2014,06,27,14,28,14.20
2014,06,27,14,29,14.20
2014,06,27,14,30,14.20
2014,06,27,14,31,14.20
2014,06,27,14,32,14.20
2014,06,27,14,33,14.20
2014,06,27,14,34,14.20
2014,06,27,14,35,14.20
2014,06,27,14,36,14.20
2014,06,27,14,37,14.20
2014,06,27,14,38,14.20
2014,06,27,14,39,14.20
2014,06,27,14,40,14.20
2014,06,27,14,41,14.20
2014,06,27,14,42,14.20
2014,06,27,14,43,14.20
2014,06,27,14,44,14.20
2014,06,27,14,45,14.20
2014,06,27,14,46,14.20
2014,06,27,14,47,14.20
2014,06,27,14,48,14.10
2014,06,27,14,49,14.10
2014,06,27,14,50,14.00
2014,06,27,14,51,14.00
2014,06,27,14,52,14.00
2014,06,27,14,53,14.00
2014,06,27,14,54,14.00
2014,06,27,14,55,14.00
2014,06,27,14,56,14.00
2014,06,27,14,57,13.90
2014,06,27,14,58,13.90
2014,06,27,14,59,13.90
2014,06,27,15,00,13.90
2014,06,27,15,01,13.90
2014,06,27,15,02,13.90
2014,06,27,15,03,13.90
2014,06,27,15,04,13.90
2014,06,27,15,05,13.90
2014,06,27,15,06,13.90
2014,06,27,15,07,13.90
2014,06,27,15,08,13.90
2014,06,27,15,09,13.90
2014,06,27,15,10,13.90
2014,06,27,15,11,13.90
2014,06,27,15,12,13.90
2014,06,27,15,13,13.90
2014,06,27,15,14,13.90
2014,06,27,15,15,13.90
2014,06,27,15,16,13.90
2014,06,27,15,17,13.90
2014,06,27,15,18,13.90
2014,06,27,15,19,13.90
2014,06,27,15,20,13.90
2014,06,27,15,21,13.90
2014,06,27,15,22,13.90
2014,06,27,15,23,14.00
2014,06,27,15,24,14.00
2014,06,27,15,25,14.00
2014,06,27,15,26,14.00
2014,06,27,15,27,14.00
2014,06,27,15,28,14.00
2014,06,27,15,29,14.00
2014,06,27,15,30,14.00
2014,06,27,15,31,14.00
2014,06,27,15,32,14.00
2014,06,27,15,33,14.00
2014,06,27,15,34,14.00
2014,06,27,15,35,14.00
2014,06,27,15,36,14.00
2014,06,27,15,37,14.00
2014,06,27,15,38,14.00
2014,06,27,15,39,13.90
2014,06,27,15,40,13.90
2014,06,27,15,41,13.90
2014,06,27,15,42,13.90
2014,06,27,15,43,13.90
2014,06,27,15,44,13.90
2014,06,27,15,45,13.90
2014,06,27,15,46,14.00
2014,06,27,15,47,14.00
2014,06,27,15,48,14.00
2014,06,27,15,49,14.10
2014,06,27,15,50,14.10
2014,06,27,15,51,14.10
2014,06,27,15,52,14.10
2014,06,27,15,53,14.10
2014,06,27,15,54,14.10
2014,06,27,15,55,14.10
2014,06,27,15,56,14.10
2014,06,27,15,57,14.10
2014,06,27,15,58,14.00
2014,06,27,15,59,14.00
2014,06,27,16,00,14.00
2014,06,27,16,01,14.00
2014,06,27,16,02,13.90
2014,06,27,16,03,13.90
2014,06,27,16,04,13.90
2014,06,27,16,05,13.90
2014,06,27,16,06,13.90
2014,06,27,16,07,13.90
2014,06,27,16,08,14.00
2014,06,27,16,09,14.00
2014,06,27,16,10,14.00
2014,06,27,16,11,14.10
2014,06,27,16,12,14.10
2014,06,27,16,13,14.10
2014,06,27,16,14,14.10
2014,06,27,16,15,14.10
2014,06,27,16,16,14.20
2014,06,27,16,17,14.20
2014,06,27,16,18,14.20
2014,06,27,16,19,14.30
2014,06,27,16,20,14.30
2014,06,27,16,21,14.30
2014,06,27,16,22,14.30
2014,06,27,16,23,14.30
2014,06,27,16,24,14.30
2014,06,27,16,25,14.30
2014,06,27,16,26,14.30
2014,06,27,16,27,14.30
2014,06,27,16,28,14.30
2014,06,27,16,29,14.30
2014,06,27,16,30,14.30
2014,06,27,16,31,14.20
2014,06,27,16,32,14.20
2014,06,27,16,33,14.20
2014,06,27,16,34,14.20
2014,06,27,16,35,14.20
2014,06,27,16,36,14.10
2014,06,27,16,37,14.10
2014,06,27,16,38,14.10
2014,06,27,16,39,14.10
2014,06,27,16,40,14.10
2014,06,27,16,41,14.10
2014,06,27,16,42,14.10
2014,06,27,16,43,14.10
2014,06,27,16,44,14.10
2014,06,27,16,45,14.10
2014,06,27,16,46,14.10
2014,06,27,16,47,14.10
2014,06,27,16,48,14.10
2014,06,27,16,49,14.10
2014,06,27,16,50,14.10
2014,06,27,16,51,14.20
2014,06,27,16,52,14.20
2014,06,27,16,53,14.20
2014,06,27,16,54,14.20
2014,06,27,16,55,14.20
2014,06,27,16,56,14.30
2014,06,27,16,57,14.20
2014,06,27,16,58,14.20
2014,06,27,16,59,14.20
2014,06,27,17,00,14.30
2014,06,27,17,01,14.30
2014,06,27,17,02,14.30
2014,06,27,17,03,14.40
2014,06,27,17,04,14.40
2014,06,27,17,05,14.50
2014,06,27,17,06,14.60
2014,06,27,17,07,14.60
2014,06,27,17,08,14.70
2014,06,27,17,09,14.70
2014,06,27,17,10,14.70
2014,06,27,17,11,14.80
2014,06,27,17,12,14.80
2014,06,27,17,13,14.80
2014,06,27,17,14,14.90
2014,06,27,17,15,14.90
2014,06,27,17,16,14.90
2014,06,27,17,17,14.90
2014,06,27,17,18,14.90
2014,06,27,17,19,15.00